Hazlehurst, GA

9:56 PM EST on December 09, 2019 (GMT -0500)
Hazlehurst

Weather History for KAZE - August, 2019

Change the Weather History Date:

Tuesday, August 6, 2019

  Actual Average Record
Temperature  
Mean Temperature 84 °F -  
Max Temperature 93 °F 92 °F 96 °F (2014)
Min Temperature 74 °F 72 °F 72 °F (2014)
Cooling Degree Days 18    
Growing Degree Days 34 (Base 50)    
Moisture  
Dew Point 70 °F    
Average Humidity 73    
Maximum Humidity 91    
Minimum Humidity 39    
Precipitation  
Precipitation 0.00 in - - ()
Sea Level Pressure  
Sea Level Pressure 29.94 in    
Wind  
Wind Speed 1 mph (SW)    
Max Wind Speed 12 mph    
Max Gust Speed 18 mph    
Visibility 10 miles    
Events Thunderstorm    
Averages and records for this station are not official NWS values.
T = Trace of Precipitation, MM = Missing Value Source: NWS Daily Summary

Daily Weather History Graph

Daily Weather History Graph

Search for Another Location

Airport or City:

Astronomy

Aug. 06, 2019 Rise Set
Actual Time 6:49 AM EDT 8:23 PM EDT
Civil Twilight 6:23 AM EDT 8:49 PM EDT
Nautical Twilight 5:51 AM EDT 9:20 PM EDT
Astronomical Twilight 5:18 AM EDT 9:53 PM EDT
Moon 12:50 PM EDT (8/6) No Moon Set
Length of Visible Light 14h 26m
Length of Day
13h 33m
Waxing Crescent, 38% of the Moon is Illuminated
Aug 6
Waxing Crescent
Aug 7
First Quarter
Aug 15
Full
Aug 23
Last Quarter
Aug 30
New

Hourly Weather History & Observations

Time (EDT) Temp. Heat Index Dew Point Humidity Pressure Visibility Wind Dir Wind Speed Gust Speed Precip Events Conditions
12:10 AM 75.2 °F - 71.8 °F 89% 29.96 in 10.0 mi Calm Calm - N/A   Clear
12:30 AM 75.2 °F - 71.8 °F 89% 29.96 in 10.0 mi Calm Calm - N/A   Clear
12:50 AM 75.2 °F - 71.8 °F 89% 29.97 in 10.0 mi Calm Calm - N/A   Clear
1:10 AM 74.8 °F - 71.6 °F 90% 29.96 in 7.0 mi Calm Calm - N/A   Clear
1:30 AM 75.0 °F - 71.6 °F 89% 29.96 in 10.0 mi Calm Calm - N/A   Clear
1:50 AM 74.8 °F - 71.6 °F 90% 29.95 in 10.0 mi Calm Calm - N/A   Clear
2:10 AM 74.5 °F - 71.4 °F 90% 29.95 in 10.0 mi Calm Calm - N/A   Clear
2:30 AM 74.5 °F - 71.4 °F 90% 29.96 in 10.0 mi Calm Calm - N/A   Clear
2:50 AM 74.3 °F - 71.2 °F 90% 29.95 in 10.0 mi SW 3.5 mph - N/A   Scattered Clouds
3:10 AM 74.3 °F - 71.2 °F 90% 29.95 in 10.0 mi SW 3.5 mph - N/A   Mostly Cloudy
3:30 AM 74.3 °F - 71.2 °F 90% 29.95 in 10.0 mi Calm Calm - N/A   Overcast
3:50 AM 74.3 °F - 71.2 °F 90% 29.94 in 7.0 mi Calm Calm - N/A   Overcast
4:10 AM 74.3 °F - 71.4 °F 91% 29.95 in 7.0 mi Calm Calm - N/A   Overcast
4:30 AM 74.3 °F - 71.6 °F 91% 29.95 in 7.0 mi Calm Calm - N/A   Mostly Cloudy
4:50 AM 74.3 °F - 71.6 °F 91% 29.95 in 10.0 mi Calm Calm - N/A   Scattered Clouds
5:10 AM 74.3 °F - 71.2 °F 90% 29.95 in 10.0 mi Calm Calm - N/A   Clear
5:30 AM 74.5 °F - 71.6 °F 91% 29.95 in 10.0 mi Calm Calm - N/A   Mostly Cloudy
5:50 AM 74.5 °F - 71.6 °F 91% 29.96 in 7.0 mi Calm Calm - N/A   Overcast
6:10 AM 74.7 °F - 71.6 °F 90% 29.96 in 7.0 mi Calm Calm - N/A   Overcast
6:30 AM 74.7 °F - 71.6 °F 90% 29.97 in 5.0 mi Calm Calm - N/A   Overcast
6:50 AM 74.7 °F - 71.6 °F 90% 29.97 in 7.0 mi Calm Calm - N/A   Overcast
7:10 AM 74.8 °F - 71.6 °F 90% 29.97 in 7.0 mi Calm Calm - N/A   Overcast
7:30 AM 74.8 °F - 71.6 °F 90% 29.97 in 10.0 mi Calm Calm - N/A   Overcast
7:50 AM 75.4 °F - 72.1 °F 90% 29.97 in 10.0 mi Calm Calm - N/A   Scattered Clouds
8:10 AM 76.1 °F - 72.5 °F 89% 29.97 in 10.0 mi SW 3.5 mph - N/A   Mostly Cloudy
8:30 AM 76.3 °F - 72.5 °F 88% 29.97 in 10.0 mi Calm Calm - N/A   Overcast
8:50 AM 77.0 °F - 72.3 °F 85% 29.97 in 10.0 mi Calm Calm - N/A   Overcast
9:10 AM 77.5 °F - 72.1 °F 83% 29.98 in 10.0 mi Calm Calm - N/A   Overcast
9:30 AM 78.1 °F - 71.6 °F 80% 29.98 in 10.0 mi West 3.5 mph - N/A   Overcast
9:50 AM 79.2 °F - 72.0 °F 78% 29.98 in 10.0 mi WNW 3.5 mph - N/A   Overcast
10:30 AM 79.2 °F - 72.1 °F 79% 29.98 in 10.0 mi Calm Calm - N/A   Overcast
10:50 AM 81.0 °F 85.1 °F 71.6 °F 73% 29.99 in 10.0 mi Calm Calm - N/A   Overcast
11:10 AM 81.1 °F 85.6 °F 72.0 °F 74% 29.99 in 10.0 mi Calm Calm - N/A   Overcast
11:30 AM 83.5 °F 88.8 °F 72.0 °F 68% 29.99 in 10.0 mi Calm Calm - N/A   Overcast
11:50 AM 84.2 °F 89.9 °F 72.1 °F 67% 29.99 in 10.0 mi WNW 3.5 mph - N/A   Overcast
12:10 PM 84.4 °F 90.0 °F 72.0 °F 66% 29.98 in 10.0 mi Calm Calm - N/A   Mostly Cloudy
12:30 PM 86.2 °F 92.2 °F 71.6 °F 62% 29.98 in 10.0 mi WSW 3.5 mph - N/A   Mostly Cloudy
12:50 PM 87.1 °F 92.8 °F 71.4 °F 59% 29.97 in 10.0 mi Calm Calm - N/A   Scattered Clouds
1:10 PM 88.0 °F 93.8 °F 70.9 °F 57% 29.96 in 10.0 mi WSW 3.5 mph - N/A   Mostly Cloudy
1:30 PM 89.6 °F 95.7 °F 70.9 °F 54% 29.95 in 10.0 mi Calm Calm - N/A   Mostly Cloudy
1:50 PM 89.8 °F 95.6 °F 70.7 °F 53% 29.95 in 10.0 mi West 3.5 mph - N/A   Scattered Clouds
2:10 PM 90.0 °F 95.9 °F 70.5 °F 53% 29.94 in 10.0 mi Calm Calm - N/A   Scattered Clouds
2:30 PM 91.2 °F 96.5 °F 69.6 °F 49% 29.92 in 10.0 mi NW 3.5 mph - N/A   Mostly Cloudy
2:50 PM 91.9 °F 97.4 °F 69.4 °F 48% 29.92 in 10.0 mi SW 4.6 mph - N/A   Scattered Clouds
3:10 PM 92.3 °F 97.6 °F 69.3 °F 47% 29.91 in 10.0 mi WSW 5.8 mph - N/A   Scattered Clouds
3:30 PM 92.5 °F 95.9 °F 67.1 °F 43% 29.90 in 10.0 mi WNW 5.8 mph - N/A   Clear
3:50 PM 93.7 °F 97.7 °F 67.3 °F 42% 29.89 in 10.0 mi Calm Calm - N/A   Scattered Clouds
4:10 PM 93.2 °F 95.3 °F 64.9 °F 39% 29.88 in 10.0 mi WSW 3.5 mph - N/A   Scattered Clouds
4:30 PM 91.9 °F 95.4 °F 66.9 °F 44% 29.89 in 10.0 mi Calm Calm - N/A   Clear
4:50 PM 93.0 °F 96.4 °F 67.1 °F 42% 29.89 in 10.0 mi Calm Calm - N/A   Clear
5:10 PM 85.8 °F 87.6 °F 65.1 °F 50% 29.91 in 10.0 mi NNE 11.5 mph 18.4 mph N/A Thunderstorm Thunderstorm
5:30 PM 82.8 °F 85.1 °F 66.4 °F 58% 29.92 in 10.0 mi NNE 8.1 mph - N/A Thunderstorm Scattered Clouds
5:50 PM 81.1 °F 83.4 °F 66.7 °F 61% 29.91 in 10.0 mi ENE 3.5 mph - N/A   Scattered Clouds
6:10 PM 81.9 °F 84.4 °F 67.1 °F 61% 29.90 in 10.0 mi Calm Calm - N/A   Scattered Clouds
6:30 PM 82.8 °F 85.3 °F 67.3 °F 59% 29.90 in 10.0 mi South 4.6 mph - N/A   Clear
6:50 PM 82.8 °F 85.5 °F 67.8 °F 60% 29.90 in 10.0 mi Calm Calm - N/A Thunderstorm Clear
7:10 PM 83.3 °F 86.2 °F 67.6 °F 59% 29.91 in 10.0 mi SSW 6.9 mph - N/A   Clear
7:30 PM 82.6 °F 85.9 °F 68.9 °F 63% 29.91 in 10.0 mi South 4.6 mph - N/A   Clear
7:50 PM 81.5 °F 84.6 °F 68.9 °F 65% 29.90 in 10.0 mi Calm Calm - N/A   Clear
8:10 PM 81.1 °F 84.4 °F 69.1 °F 67% 29.90 in 10.0 mi Calm Calm - N/A   Clear
8:30 PM 80.1 °F 83.2 °F 70.0 °F 71% 29.90 in 10.0 mi Calm Calm - N/A   Clear
8:50 PM 80.2 °F 83.2 °F 69.3 °F 69% 29.90 in 10.0 mi SSE 3.5 mph - N/A   Clear
9:10 PM 79.9 °F - 69.4 °F 70% 29.92 in 10.0 mi South 3.5 mph - N/A   Clear
9:30 PM 79.2 °F - 69.8 °F 73% 29.93 in 10.0 mi South 5.8 mph - N/A   Scattered Clouds
9:50 PM 78.8 °F - 70.3 °F 75% 29.93 in 10.0 mi South 3.5 mph - N/A   Scattered Clouds
10:10 PM 78.4 °F - 70.2 °F 76% 29.93 in 10.0 mi South 3.5 mph - N/A   Scattered Clouds
10:30 PM 78.1 °F - 70.3 °F 77% 29.93 in 10.0 mi South 4.6 mph - N/A Thunderstorm Scattered Clouds
10:50 PM 77.9 °F - 70.7 °F 78% 29.94 in 10.0 mi South 4.6 mph - N/A   Clear
11:10 PM 77.4 °F - 70.9 °F 80% 29.94 in 10.0 mi South 5.8 mph - N/A   Clear
11:30 PM 77.0 °F - 70.9 °F 81% 29.94 in 10.0 mi South 5.8 mph - N/A   Clear
11:50 PM 77.0 °F - 70.9 °F 81% 29.94 in 10.0 mi SSW 6.9 mph - N/A   Clear